Location: Dackenheim
(49.5215°N, 8.1854°E)
Time: 03:31:20
(UTC+00:00)

UWE-3 - Pass Details

Date: 22 March 2026
Orbit: 543 x 612 km, 97.9° (Epoch: 12 April)

Event Time Altitude Azimuth Distance (km) Brightness Sun altitude
Rises 01:20:23 0° 26° (NNE) 2,871 ? -35.0°
Reaches altitude 10° 01:23:05 10° 43° (NE) 1,951 ? -34.7°
Enters shadow 01:24:41 17° 63° (ENE) 1,545 ? -34.6°
